NOAA 16 DEB, 41373

Orbit data source: Space-Track

NOAA 16 DEB, 41373 is space debris in SSO originally from a launch on Thu, 21 Sep 2000 UTC launched from the Air Force Western Test Range (AFWTR). Debris objects in space refer to the collection of defunct objects orbiting the Earth. Examples of debris include non-operational satellites, rocket bodies, and fragments generated from explosions, collisions, or faulty payload assembly.

Loading next visibility...
Identifier
41373, 2000-055JS
Orbit
SSO
Country
Flag of USUS
Related business
Manufacturer
Unknown
Mission
Spacecraft
Bus & Motor
Unknown
Mass
Unknown
Launch date (UTC)
2000-09-21 (25 years ago)
Launch vehicle
Unknown
Launch site
Air Force Western Test Range (AFWTR)
Object type
Payload
Rocket body
Debris
Shape & HBR
Unknown shape, 0.1 m
Radar Cross Section
Small (<0.1 m²)

Expand to show TLE details & history
Last TLE update: 23 hours ago

TLE from 23 hours ago
0 NOAA 16 DEB
1 41373U 00055JS  25293.64202366  .00013094  00000-0  39523-2 0  9999
2 41373  98.9126  80.2546 0021636 148.7391 211.5088 14.42430344506523
Epoch: 2025-10-20T15:24Z
TLE epoch observation values (Epoch: 2025-10-20T15:24:30.844Z)
Latitude
-0.00007°
Longitude
179.78469°
Altitude
766.58 km
Speed
7.464 km/s
True Right ascension
05h 21m 01s
True Declination
0° 00' 00"
Sunlit
Object was in full shadow at epoch
Visualization orbit readout
Latitude
Unknown
Longitude
Unknown
Altitude
Unknown
Speed
Unknown
Apparent Right ascension
Unknown
Apparent Declination
Unknown
Sunlit
N/A
Visualization observer readout
Local Sidereal Time
09:04:24
Azimuth
Unknown
Elevation
Unknown
Doppler factor
Unknown
Orbital elements
Apogee altitude
763.036 km
Perigee altitude
732.201 km
Semi-major axis
7,125.755 km
Eccentricity
0.00216
Inclination
98.9126°
RAAN
80.2546°
Arg. of periapsis
148.7391°
True anomaly
211.37952°
Mean anomaly
211.5088°
Eccentric anomaly
211.44413°
Mean motion
3.60825 °/min
Orbital period
99.77 mins
BSTAR
0.0039523
Loading maneuver chart data...
Computing Atmospheric mass density...

Documentation

Showing up to 5 results
|